Weather History for PHOG - September, 2012

Change the Weather History Date:

Monday, September 3, 2012

  Actual Average Record
Temperature  
Mean Temperature 80 °F 80 °F  
Max Temperature 87 °F 88 °F 94 °F (2005)
Min Temperature 72 °F 71 °F 64 °F (2002)
Degree Days  
Heating Degree Days 0 0  
Month to date heating degree days 0 0  
Since 1 July heating degree days 0 0  
Cooling Degree Days 15 14  
Month to date cooling degree days 43 44  
Year to date cooling degree days 2589 2586  
Growing Degree Days 29 (Base 50)    
Moisture  
Dew Point 65 °F    
Average Humidity 64    
Maximum Humidity 84    
Minimum Humidity 44    
Precipitation  
Precipitation T in 0.01 in 0.18 in (1992)
Month to date precipitation 0.02 0.03  
Year to date precipitation 4.35 10.73  
Snow  
Snow 0.00 in - - ()
Month to date snowfall 0.0  
Since 1 July snowfall 0.0  
Since 1 September snowfall 0.0  
Snow Depth 0.00 in    
Sea Level Pressure  
Sea Level Pressure 30.04 in    
Wind  
Wind Speed 18 mph (NE)    
Max Wind Speed 33 mph    
Max Gust Speed 41 mph    
Visibility 10 miles    
Events Rain    
T = Trace of Precipitation, MM = Missing Value Source: NWS Daily Summary

Daily Weather History Graph

Daily Weather History Graph

Search for Another Location

Airport or City:

Trip Planner

Search our weather history database for the weather conditions in past years. The results will help you decide how hot, cold, wet, or windy it might be!

Date:

Astronomy

Sep. 03, 2012 Rise Set
Actual Time 6:10 AM HST 6:39 PM HST
Civil Twilight 5:47 AM HST 7:01 PM HST
Nautical Twilight 5:21 AM HST 7:27 PM HST
Astronomical Twilight 4:55 AM HST 7:54 PM HST
Moon 8:41 PM HST (9/3) 8:54 AM HST (9/3)
Length of Visible Light 13h 13m
Length of Day
12h 28m
Waning Gibbous, 89% of the Moon is Illuminated
Sep 3
Waning Gibbous
Sep 8
Last Quarter
Sep 15
New
Sep 22
First Quarter
Sep 29
Full

Hourly Weather History & Observations

Time (HST) Temp. Heat Index Dew Point Humidity Pressure Visibility Wind Dir Wind Speed Gust Speed Precip Events Conditions
12:54 AM 73.9 °F - 68.0 °F 82% 30.05 in 10.0 mi NNE 8.1 mph - 0.00 in Rain Light Rain
1:54 AM 73.9 °F - 66.9 °F 79% 30.04 in 10.0 mi NE 12.7 mph - 0.00 in   Mostly Cloudy
2:54 AM 73.0 °F - 68.0 °F 84% 30.03 in 10.0 mi ENE 10.4 mph 19.6 mph 0.00 in Rain Light Rain
3:54 AM 73.0 °F - 64.9 °F 76% 30.02 in 10.0 mi NE 13.8 mph 21.9 mph 0.00 in   Clear
4:54 AM 73.0 °F - 63.0 °F 71% 30.04 in 10.0 mi ENE 13.8 mph - N/A   Clear
5:54 AM 73.0 °F - 64.0 °F 73% 30.04 in 10.0 mi NE 18.4 mph - N/A   Clear
6:54 AM 73.9 °F - 64.9 °F 73% 30.06 in 10.0 mi NE 13.8 mph - N/A   Scattered Clouds
7:54 AM 77.0 °F - 63.0 °F 62% 30.08 in 10.0 mi ENE 13.8 mph 23.0 mph N/A   Scattered Clouds
8:54 AM 81.0 °F 81.6 °F 60.1 °F 49% 30.08 in 10.0 mi ENE 18.4 mph 27.6 mph N/A   Scattered Clouds
9:54 AM 84.0 °F 84.0 °F 60.1 °F 44% 30.09 in 10.0 mi ENE 19.6 mph 29.9 mph N/A   Partly Cloudy
10:54 AM 84.9 °F 86.1 °F 64.0 °F 49% 30.08 in 10.0 mi NE 23.0 mph 31.1 mph N/A   Partly Cloudy
11:54 AM 84.9 °F 85.9 °F 63.0 °F 48% 30.06 in 10.0 mi ENE 26.5 mph 36.8 mph N/A   Scattered Clouds
12:54 PM 84.9 °F 87.1 °F 66.0 °F 53% 30.04 in 10.0 mi NE 24.2 mph 32.2 mph N/A   Scattered Clouds
1:54 PM 84.9 °F 87.1 °F 66.0 °F 53% 30.02 in 10.0 mi ENE 23.0 mph 38.0 mph N/A   Scattered Clouds
2:54 PM 82.9 °F 84.6 °F 64.9 °F 54% 29.99 in 10.0 mi ENE 26.5 mph 39.1 mph N/A   Scattered Clouds
3:54 PM 82.9 °F 85.0 °F 66.0 °F 56% 29.99 in 10.0 mi NE 27.6 mph 32.2 mph N/A   Scattered Clouds
4:54 PM 82.0 °F 83.0 °F 62.1 °F 51% 29.99 in 10.0 mi NE 23.0 mph 33.4 mph N/A   Scattered Clouds
5:54 PM 79.0 °F - 64.0 °F 60% 30.00 in 10.0 mi NE 20.7 mph 33.4 mph N/A   Partly Cloudy
6:54 PM 77.0 °F - 66.0 °F 69% 30.00 in 10.0 mi NE 26.5 mph 36.8 mph N/A   Clear
7:54 PM 75.9 °F - 66.9 °F 74% 30.02 in 10.0 mi NE 24.2 mph 33.4 mph N/A   Clear
8:54 PM 75.9 °F - 66.9 °F 74% 30.04 in 10.0 mi NE 23.0 mph 29.9 mph N/A   Clear
9:54 PM 75.9 °F - 66.0 °F 71% 30.05 in 10.0 mi NE 21.9 mph 29.9 mph N/A   Clear
10:54 PM 75.9 °F - 64.9 °F 69% 30.06 in 10.0 mi NE 20.7 mph 29.9 mph N/A   Clear
11:54 PM 75.9 °F - 63.0 °F 64% 30.05 in 10.0 mi ENE 15.0 mph 25.3 mph N/A   Partly Cloudy